Time,TemperatureF,DewpointF,PressureIn,WindDirection,WindDirectionDegrees,WindSpeedMPH,WindSpeedGustMPH,Humidity,HourlyPrecipIn,Conditions,Clouds,dailyrainin,SoftwareType,DateUTC
2013-11-11 00:00:00,55.0,34.1,29.85,North,0,1.4,2.3,45,0.00,CLR,,0.00,WeatherDisplay:10.37,2013-11-11 06:00:00,
2013-11-11 00:05:00,55.0,33.5,29.85,NNE,22,1.6,2.3,44,0.00,CLR,,0.00,WeatherDisplay:10.37,2013-11-11 06:05:00,
2013-11-11 00:10:00,55.0,33.5,29.85,NNE,22,1.2,1.6,44,0.00,CLR,,0.00,WeatherDisplay:10.37,2013-11-11 06:10:00,
2013-11-11 00:16:00,54.7,33.2,29.85,North,0,1.6,2.6,44,0.00,CLR,,0.00,WeatherDisplay:10.37,2013-11-11 06:16:00,
2013-11-11 00:21:00,54.5,33.0,29.85,NNE,22,1.2,1.4,44,0.00,CLR,,0.00,WeatherDisplay:10.37,2013-11-11 06:21:00,
2013-11-11 00:26:00,54.5,33.0,29.85,NNE,22,1.4,2.4,44,0.00,CLR,,0.00,WeatherDisplay:10.37,2013-11-11 06:26:00,
2013-11-11 00:31:00,54.5,33.0,29.85,North,0,1.2,1.4,44,0.00,CLR,,0.00,WeatherDisplay:10.37,2013-11-11 06:31:00,
2013-11-11 00:36:00,54.9,32.8,29.85,North,0,2.2,3.5,43,0.00,CLR,,0.00,WeatherDisplay:10.37,2013-11-11 06:36:00,
2013-11-11 00:41:00,54.7,32.6,29.85,NE,45,1.4,1.6,43,0.00,CLR,,0.00,WeatherDisplay:10.37,2013-11-11 06:41:00,
2013-11-11 00:46:00,54.9,32.2,29.85,East,90,0.9,1.6,42,0.00,CLR,,0.00,WeatherDisplay:10.37,2013-11-11 06:46:00,
2013-11-11 00:51:00,54.9,32.2,29.85,East,90,1.6,2.3,42,0.00,CLR,,0.00,WeatherDisplay:10.37,2013-11-11 06:51:00,
2013-11-11 00:56:00,54.9,31.6,29.88,ENE,68,1.4,2.3,41,0.00,CLR,,0.00,WeatherDisplay:10.37,2013-11-11 06:56:00,
2013-11-11 01:01:00,55.0,31.7,29.88,NE,45,1.6,2.4,41,0.00,CLR,,0.00,WeatherDisplay:10.37,2013-11-11 07:01:00,
2013-11-11 01:06:00,54.9,31.6,29.88,ENE,68,0.0,1.4,41,0.00,CLR,,0.00,WeatherDisplay:10.37,2013-11-11 07:06:00,
2013-11-11 01:11:00,55.0,31.7,29.88,NE,45,1.6,2.3,41,0.00,CLR,,0.00,WeatherDisplay:10.37,2013-11-11 07:11:00,
2013-11-11 01:16:00,55.0,31.1,29.88,NE,45,1.2,1.6,40,0.00,CLR,,0.00,WeatherDisplay:10.37,2013-11-11 07:16:00,
2013-11-11 01:21:00,55.0,31.1,29.88,ENE,68,1.4,2.3,40,0.00,CLR,,0.00,WeatherDisplay:10.37,2013-11-11 07:21:00,
2013-11-11 01:26:00,55.0,31.1,29.85,ENE,68,1.6,2.3,40,0.00,CLR,,0.00,WeatherDisplay:10.37,2013-11-11 07:26:00,
2013-11-11 01:31:00,55.0,31.1,29.85,ENE,68,2.0,2.3,40,0.00,CLR,,0.00,WeatherDisplay:10.37,2013-11-11 07:31:00,
2013-11-11 01:36:00,55.0,30.5,29.85,ENE,68,1.6,3.5,39,0.00,CLR,,0.00,WeatherDisplay:10.37,2013-11-11 07:36:00,
2013-11-11 01:41:00,55.0,30.5,29.85,NE,45,2.0,2.6,39,0.00,CLR,,0.00,WeatherDisplay:10.37,2013-11-11 07:41:00,
2013-11-11 01:46:00,55.0,30.5,29.85,NE,45,1.4,2.3,39,0.00,CLR,,0.00,WeatherDisplay:10.37,2013-11-11 07:46:00,
2013-11-11 01:51:00,55.0,30.5,29.85,NNE,22,1.2,2.3,39,0.00,CLR,,0.00,WeatherDisplay:10.37,2013-11-11 07:51:00,
2013-11-11 01:56:00,55.0,30.5,29.85,NE,45,2.4,2.4,39,0.00,CLR,,0.00,WeatherDisplay:10.37,2013-11-11 07:56:00,
2013-11-11 02:01:00,55.0,30.5,29.85,NE,45,1.4,2.3,39,0.00,CLR,,0.00,WeatherDisplay:10.37,2013-11-11 08:01:00,
2013-11-11 02:06:00,55.0,30.5,29.85,NNE,22,1.4,2.3,39,0.00,CLR,,0.00,WeatherDisplay:10.37,2013-11-11 08:06:00,
2013-11-11 02:11:00,54.9,30.3,29.85,NNE,22,2.4,3.5,39,0.00,CLR,,0.00,WeatherDisplay:10.37,2013-11-11 08:11:00,
2013-11-11 02:16:00,54.7,30.2,29.85,North,0,1.6,2.2,39,0.00,CLR,,0.00,WeatherDisplay:10.37,2013-11-11 08:16:00,
2013-11-11 02:21:00,54.5,30.0,29.85,NNE,22,1.6,2.6,39,0.00,CLR,,0.00,WeatherDisplay:10.37,2013-11-11 08:21:00,
2013-11-11 02:26:00,54.5,30.0,29.85,NNE,22,1.6,2.4,39,0.00,CLR,,0.00,WeatherDisplay:10.37,2013-11-11 08:26:00,
2013-11-11 02:31:00,54.5,30.0,29.85,ENE,68,1.2,3.3,39,0.00,CLR,,0.00,WeatherDisplay:10.37,2013-11-11 08:31:00,
2013-11-11 02:36:00,54.7,30.2,29.85,NE,45,2.0,2.3,39,0.00,CLR,,0.00,WeatherDisplay:10.37,2013-11-11 08:36:00,
2013-11-11 02:41:00,54.7,30.2,29.85,ENE,68,1.6,2.4,39,0.00,CLR,,0.00,WeatherDisplay:10.37,2013-11-11 08:41:00,
2013-11-11 02:46:00,54.7,30.2,29.85,NE,45,2.2,2.9,39,0.00,CLR,,0.00,WeatherDisplay:10.37,2013-11-11 08:46:00,
2013-11-11 02:51:00,54.9,30.3,29.85,NE,45,1.6,2.3,39,0.00,CLR,,0.00,WeatherDisplay:10.37,2013-11-11 08:51:00,
2013-11-11 02:56:00,54.9,30.3,29.85,ENE,68,1.4,2.3,39,0.00,CLR,,0.00,WeatherDisplay:10.37,2013-11-11 08:56:00,
2013-11-11 03:01:00,54.7,29.5,29.85,NE,45,1.4,2.3,38,0.00,CLR,,0.00,WeatherDisplay:10.37,2013-11-11 09:01:00,
2013-11-11 03:06:00,54.7,29.5,29.85,NE,45,2.0,2.9,38,0.00,CLR,,0.00,WeatherDisplay:10.37,2013-11-11 09:06:00,
2013-11-11 03:11:00,54.7,29.5,29.85,NE,45,2.2,3.1,38,0.00,CLR,,0.00,WeatherDisplay:10.37,2013-11-11 09:11:00,
2013-11-11 03:16:00,54.5,29.4,29.85,NE,45,2.0,2.4,38,0.00,CLR,,0.00,WeatherDisplay:10.37,2013-11-11 09:16:00,
2013-11-11 03:21:00,54.3,29.9,29.85,ENE,68,1.6,2.3,39,0.00,CLR,,0.00,WeatherDisplay:10.37,2013-11-11 09:21:00,
2013-11-11 03:26:00,54.3,29.9,29.85,NE,45,2.0,2.4,39,0.00,CLR,,0.00,WeatherDisplay:10.37,2013-11-11 09:26:00,
2013-11-11 03:31:00,54.1,29.7,29.85,NE,45,2.0,2.4,39,0.00,CLR,,0.00,WeatherDisplay:10.37,2013-11-11 09:31:00,
2013-11-11 03:36:00,54.0,30.2,29.85,NNE,22,1.4,2.3,40,0.00,CLR,,0.00,WeatherDisplay:10.37,2013-11-11 09:36:00,
2013-11-11 03:41:00,54.0,30.2,29.85,NE,45,2.2,3.6,40,0.00,CLR,,0.00,WeatherDisplay:10.37,2013-11-11 09:41:00,
2013-11-11 03:46:00,53.8,30.0,29.85,NNE,22,1.4,2.3,40,0.00,CLR,,0.00,WeatherDisplay:10.37,2013-11-11 09:46:00,
2013-11-11 03:51:00,53.8,30.0,29.85,NE,45,2.4,3.5,40,0.00,CLR,,0.00,WeatherDisplay:10.37,2013-11-11 09:51:00,
2013-11-11 03:56:00,53.6,29.8,29.83,NNE,22,2.0,2.3,40,0.00,CLR,,0.00,WeatherDisplay:10.37,2013-11-11 09:56:00,
2013-11-11 04:01:00,53.6,29.8,29.83,NE,45,2.2,2.9,40,0.00,CLR,,0.00,WeatherDisplay:10.37,2013-11-11 10:01:00,
2013-11-11 04:06:00,53.8,30.0,29.83,NNE,22,2.0,2.6,40,0.00,CLR,,0.00,WeatherDisplay:10.37,2013-11-11 10:06:00,
2013-11-11 04:11:00,53.8,30.0,29.83,NE,45,2.0,2.4,40,0.00,CLR,,0.00,WeatherDisplay:10.37,2013-11-11 10:11:00,
2013-11-11 04:16:00,53.8,30.0,29.83,NNE,22,1.6,3.5,40,0.00,CLR,,0.00,WeatherDisplay:10.37,2013-11-11 10:16:00,
2013-11-11 04:21:00,53.8,29.4,29.83,NE,45,1.6,2.4,39,0.00,CLR,,0.00,WeatherDisplay:10.37,2013-11-11 10:21:00,
2013-11-11 04:26:00,53.6,29.8,29.85,ENE,68,1.6,2.3,40,0.00,CLR,,0.00,WeatherDisplay:10.37,2013-11-11 10:26:00,
2013-11-11 04:31:00,53.4,29.7,29.85,ENE,68,1.4,2.4,40,0.00,CLR,,0.00,WeatherDisplay:10.37,2013-11-11 10:31:00,
2013-11-11 04:36:00,53.4,29.7,29.85,ENE,68,2.0,2.6,40,0.00,CLR,,0.00,WeatherDisplay:10.37,2013-11-11 10:36:00,
2013-11-11 04:41:00,53.2,29.5,29.83,NE,45,2.2,2.4,40,0.00,CLR,,0.00,WeatherDisplay:10.37,2013-11-11 10:41:00,
2013-11-11 04:46:00,53.1,29.4,29.83,NE,45,2.2,2.6,40,0.00,CLR,,0.00,WeatherDisplay:10.37,2013-11-11 10:46:00,
2013-11-11 04:51:00,53.1,30.0,29.83,NNE,22,1.6,2.3,41,0.00,CLR,,0.00,WeatherDisplay:10.37,2013-11-11 10:51:00,
2013-11-11 04:56:00,52.9,29.8,29.83,NNE,22,1.2,2.3,41,0.00,CLR,,0.00,WeatherDisplay:10.37,2013-11-11 10:56:00,
2013-11-11 05:01:00,52.5,30.1,29.83,NNE,22,1.4,1.6,42,0.00,CLR,,0.00,WeatherDisplay:10.37,2013-11-11 11:01:00,
2013-11-11 05:06:00,52.5,30.1,29.83,NE,45,1.2,1.6,42,0.00,CLR,,0.00,WeatherDisplay:10.37,2013-11-11 11:06:00,
2013-11-11 05:11:00,52.2,29.7,29.83,NE,45,1.2,1.4,42,0.00,CLR,,0.00,WeatherDisplay:10.37,2013-11-11 11:11:00,
2013-11-11 05:16:00,52.0,30.2,29.83,ENE,68,1.2,1.2,43,0.00,CLR,,0.00,WeatherDisplay:10.37,2013-11-11 11:16:00,
2013-11-11 05:21:00,51.8,29.4,29.83,NE,45,2.0,2.4,42,0.00,CLR,,0.00,WeatherDisplay:10.37,2013-11-11 11:21:00,
2013-11-11 05:26:00,51.6,30.4,29.83,NE,45,1.2,1.6,44,0.00,CLR,,0.00,WeatherDisplay:10.37,2013-11-11 11:26:00,
2013-11-11 05:31:00,51.4,31.3,29.83,NNE,22,1.4,1.6,46,0.00,CLR,,0.00,WeatherDisplay:10.37,2013-11-11 11:31:00,
2013-11-11 05:36:00,51.3,31.7,29.83,NNE,22,1.4,2.3,47,0.00,CLR,,0.00,WeatherDisplay:10.37,2013-11-11 11:36:00,
2013-11-11 05:41:00,51.1,31.5,29.85,NE,45,2.2,2.3,47,0.00,CLR,,0.00,WeatherDisplay:10.37,2013-11-11 11:41:00,
2013-11-11 05:46:00,51.1,31.5,29.85,NNE,22,1.6,2.3,47,0.00,CLR,,0.00,WeatherDisplay:10.37,2013-11-11 11:46:00,
2013-11-11 05:51:00,51.3,31.7,29.85,NNE,22,2.0,2.3,47,0.00,CLR,,0.00,WeatherDisplay:10.37,2013-11-11 11:51:00,
2013-11-11 05:56:00,51.3,31.7,29.85,NE,45,1.6,2.3,47,0.00,CLR,,0.00,WeatherDisplay:10.37,2013-11-11 11:56:00,
2013-11-11 06:01:00,51.3,31.2,29.85,ENE,68,1.6,2.3,46,0.00,CLR,,0.00,WeatherDisplay:10.37,2013-11-11 12:01:00,
2013-11-11 06:06:00,51.3,31.7,29.85,NE,45,2.2,2.3,47,0.00,CLR,,0.00,WeatherDisplay:10.37,2013-11-11 12:06:00,
2013-11-11 06:11:00,51.4,31.9,29.85,NE,45,2.0,3.1,47,0.00,CLR,,0.00,WeatherDisplay:10.37,2013-11-11 12:11:00,
2013-11-11 06:16:00,51.4,31.9,29.85,NE,45,1.6,2.4,47,0.00,CLR,,0.00,WeatherDisplay:10.37,2013-11-11 12:16:00,
2013-11-11 06:21:00,51.4,31.9,29.85,NNE,22,1.6,3.5,47,0.00,CLR,,0.00,WeatherDisplay:10.37,2013-11-11 12:21:00,
2013-11-11 06:26:00,51.3,31.7,29.85,ENE,68,2.0,2.4,47,0.00,CLR,,0.00,WeatherDisplay:10.37,2013-11-11 12:26:00,
2013-11-11 06:31:00,51.4,31.9,29.85,NNE,22,2.0,2.9,47,0.00,CLR,,0.00,WeatherDisplay:10.37,2013-11-11 12:31:00,
2013-11-11 06:36:00,51.4,31.9,29.85,NNE,22,2.4,2.6,47,0.00,CLR,,0.00,WeatherDisplay:10.37,2013-11-11 12:36:00,
2013-11-11 06:41:00,51.8,31.7,29.85,NE,45,2.2,2.4,46,0.00,CLR,,0.00,WeatherDisplay:10.37,2013-11-11 12:41:00,
2013-11-11 06:46:00,52.2,32.0,29.85,NNE,22,2.4,2.6,46,0.00,CLR,,0.00,WeatherDisplay:10.37,2013-11-11 12:46:00,
2013-11-11 06:51:00,52.5,32.3,29.85,NNE,22,2.0,3.5,46,0.00,CLR,,0.00,WeatherDisplay:10.37,2013-11-11 12:51:00,
2013-11-11 06:56:00,52.9,32.6,29.85,NNE,22,2.2,2.4,46,0.00,CLR,,0.00,WeatherDisplay:10.37,2013-11-11 12:56:00,
2013-11-11 07:01:00,54.0,32.5,29.85,ENE,68,2.9,4.6,44,0.00,CLR,,0.00,WeatherDisplay:10.37,2013-11-11 13:01:00,
2013-11-11 07:06:00,54.5,31.9,29.85,ENE,68,3.6,4.6,42,0.00,CLR,,0.00,WeatherDisplay:10.37,2013-11-11 13:06:00,
2013-11-11 07:11:00,55.2,31.9,29.85,ENE,68,2.6,5.8,41,0.00,CLR,,0.00,WeatherDisplay:10.37,2013-11-11 13:11:00,
2013-11-11 07:16:00,55.9,31.3,29.85,NE,45,3.8,4.9,39,0.00,CLR,,0.00,WeatherDisplay:10.37,2013-11-11 13:16:00,
2013-11-11 07:21:00,56.5,31.8,29.85,ENE,68,3.3,5.4,39,0.00,CLR,,0.00,WeatherDisplay:10.37,2013-11-11 13:21:00,
2013-11-11 07:26:00,57.2,31.8,29.85,ENE,68,3.6,4.6,38,0.00,CLR,,0.00,WeatherDisplay:10.37,2013-11-11 13:26:00,
2013-11-11 07:31:00,57.7,31.6,29.85,ENE,68,3.6,5.8,37,0.00,CLR,,0.00,WeatherDisplay:10.37,2013-11-11 13:31:00,
2013-11-11 07:36:00,58.1,31.9,29.85,ENE,68,4.0,5.8,37,0.00,CLR,,0.00,WeatherDisplay:10.37,2013-11-11 13:36:00,
2013-11-11 07:41:00,58.5,31.6,29.85,NNE,22,4.3,5.8,36,0.00,CLR,,0.00,WeatherDisplay:10.37,2013-11-11 13:41:00,
2013-11-11 07:46:00,58.8,31.9,29.85,East,90,4.3,4.6,36,0.00,CLR,,0.00,WeatherDisplay:10.37,2013-11-11 13:46:00,
2013-11-11 07:51:00,59.4,31.7,29.85,ENE,68,4.3,4.6,35,0.00,CLR,,0.00,WeatherDisplay:10.37,2013-11-11 13:51:00,
2013-11-11 07:56:00,59.9,32.2,29.88,East,90,3.6,5.8,35,0.00,CLR,,0.00,WeatherDisplay:10.37,2013-11-11 13:56:00,
2013-11-11 08:01:00,60.3,32.5,29.88,NE,45,2.9,3.6,35,0.00,CLR,,0.00,WeatherDisplay:10.37,2013-11-11 14:01:00,
2013-11-11 08:06:00,60.6,32.8,29.88,East,90,3.3,4.6,35,0.00,CLR,,0.00,WeatherDisplay:10.37,2013-11-11 14:06:00,
2013-11-11 08:11:00,61.3,33.4,29.85,ENE,68,2.6,4.6,35,0.00,CLR,,0.00,WeatherDisplay:10.37,2013-11-11 14:11:00,
2013-11-11 08:16:00,62.1,33.3,29.85,ENE,68,3.6,3.8,34,0.00,CLR,,0.00,WeatherDisplay:10.37,2013-11-11 14:16:00,
2013-11-11 08:21:00,62.2,32.8,29.85,NE,45,4.0,5.9,33,0.00,CLR,,0.00,WeatherDisplay:10.37,2013-11-11 14:21:00,
2013-11-11 08:26:00,62.6,30.7,29.88,ESE,112,5.9,8.1,30,0.00,CLR,,0.00,WeatherDisplay:10.37,2013-11-11 14:26:00,
2013-11-11 08:31:00,63.0,31.0,29.88,East,90,4.0,5.4,30,0.00,CLR,,0.00,WeatherDisplay:10.37,2013-11-11 14:31:00,
2013-11-11 08:36:00,63.5,31.5,29.88,ENE,68,3.6,5.8,30,0.00,CLR,,0.00,WeatherDisplay:10.37,2013-11-11 14:36:00,
2013-11-11 08:41:00,64.2,31.3,29.88,East,90,2.4,4.6,29,0.00,CLR,,0.00,WeatherDisplay:10.37,2013-11-11 14:41:00,
2013-11-11 08:46:00,64.8,30.0,29.88,SSE,158,3.3,5.8,27,0.00,CLR,,0.00,WeatherDisplay:10.37,2013-11-11 14:46:00,
2013-11-11 08:51:00,64.9,30.1,29.88,ENE,68,4.7,5.8,27,0.00,CLR,,0.00,WeatherDisplay:10.37,2013-11-11 14:51:00,
2013-11-11 08:56:00,65.5,29.7,29.88,East,90,4.0,4.9,26,0.00,CLR,,0.00,WeatherDisplay:10.37,2013-11-11 14:56:00,
2013-11-11 09:01:00,66.0,30.1,29.88,ENE,68,3.8,4.6,26,0.00,CLR,,0.00,WeatherDisplay:10.37,2013-11-11 15:01:00,
2013-11-11 09:06:00,66.7,31.7,29.88,East,90,2.6,5.9,27,0.00,CLR,,0.00,WeatherDisplay:10.37,2013-11-11 15:06:00,
2013-11-11 09:11:00,67.3,30.2,29.91,East,90,3.6,4.9,25,0.00,CLR,,0.00,WeatherDisplay:10.37,2013-11-11 15:11:00,
2013-11-11 09:16:00,67.8,30.7,29.91,East,90,3.1,4.6,25,0.00,CLR,,0.00,WeatherDisplay:10.37,2013-11-11 15:16:00,
2013-11-11 09:21:00,68.0,29.8,29.91,ESE,112,4.5,7.1,24,0.00,CLR,,0.00,WeatherDisplay:10.37,2013-11-11 15:21:00,
2013-11-11 09:26:00,68.2,30.0,29.88,East,90,3.6,4.9,24,0.00,CLR,,0.00,WeatherDisplay:10.37,2013-11-11 15:26:00,
2013-11-11 09:31:00,68.4,29.1,29.88,East,90,3.6,6.2,23,0.00,CLR,,0.00,WeatherDisplay:10.37,2013-11-11 15:31:00,
2013-11-11 09:36:00,68.5,29.2,29.88,ESE,112,5.6,6.0,23,0.00,CLR,,0.00,WeatherDisplay:10.37,2013-11-11 15:36:00,
2013-11-11 09:41:00,68.7,29.4,29.91,East,90,3.6,4.6,23,0.00,CLR,,0.00,WeatherDisplay:10.37,2013-11-11 15:41:00,
2013-11-11 09:46:00,68.9,29.5,29.91,East,90,4.7,5.8,23,0.00,CLR,,0.00,WeatherDisplay:10.37,2013-11-11 15:46:00,
2013-11-11 09:51:00,69.1,29.7,29.91,ENE,68,5.4,5.8,23,0.00,CLR,,0.00,WeatherDisplay:10.37,2013-11-11 15:51:00,
2013-11-11 09:56:00,69.3,29.8,29.91,ENE,68,4.0,5.9,23,0.00,CLR,,0.00,WeatherDisplay:10.37,2013-11-11 15:56:00,
2013-11-11 10:01:00,70.0,30.5,29.91,SSE,158,3.8,4.6,23,0.00,CLR,,0.00,WeatherDisplay:10.37,2013-11-11 16:01:00,
2013-11-11 10:06:00,70.0,30.5,29.91,East,90,4.7,7.1,23,0.00,CLR,,0.00,WeatherDisplay:10.37,2013-11-11 16:06:00,
2013-11-11 10:11:00,70.3,30.8,29.88,East,90,4.7,5.8,23,0.00,CLR,,0.00,WeatherDisplay:10.37,2013-11-11 16:11:00,
2013-11-11 10:16:00,70.5,30.9,29.88,East,90,4.5,6.2,23,0.00,CLR,,0.00,WeatherDisplay:10.37,2013-11-11 16:16:00,
2013-11-11 10:21:00,71.1,31.4,29.88,East,90,2.9,6.2,23,0.00,CLR,,0.00,WeatherDisplay:10.37,2013-11-11 16:21:00,
2013-11-11 10:26:00,71.2,30.4,29.91,NE,45,5.4,6.2,22,0.00,CLR,,0.00,WeatherDisplay:10.37,2013-11-11 16:26:00,
2013-11-11 10:31:00,71.2,30.4,29.91,East,90,4.3,5.8,22,0.00,CLR,,0.00,WeatherDisplay:10.37,2013-11-11 16:31:00,
2013-11-11 10:36:00,71.6,30.7,29.91,SE,135,3.6,4.6,22,0.00,CLR,,0.00,WeatherDisplay:10.37,2013-11-11 16:36:00,
2013-11-11 10:41:00,71.8,30.9,29.91,ESE,112,5.4,5.8,22,0.00,CLR,,0.00,WeatherDisplay:10.37,2013-11-11 16:41:00,
2013-11-11 10:46:00,71.6,30.7,29.91,East,90,5.4,6.9,22,0.00,CLR,,0.00,WeatherDisplay:10.37,2013-11-11 16:46:00,
2013-11-11 10:51:00,72.1,31.2,29.91,ESE,112,4.0,6.0,22,0.00,CLR,,0.00,WeatherDisplay:10.37,2013-11-11 16:51:00,
2013-11-11 10:56:00,72.7,31.6,29.91,ESE,112,4.9,6.9,22,0.00,CLR,,0.00,WeatherDisplay:10.37,2013-11-11 16:56:00,
2013-11-11 11:01:00,72.9,30.6,29.91,East,90,4.5,5.8,21,0.00,CLR,,0.00,WeatherDisplay:10.37,2013-11-11 17:01:00,
2013-11-11 11:06:00,73.0,30.8,29.91,East,90,4.0,5.8,21,0.00,CLR,,0.00,WeatherDisplay:10.37,2013-11-11 17:06:00,
2013-11-11 11:11:00,73.0,28.3,29.91,East,90,6.0,6.9,19,0.00,CLR,,0.00,WeatherDisplay:10.37,2013-11-11 17:11:00,
2013-11-11 11:16:00,73.2,28.5,29.91,ESE,112,4.7,6.9,19,0.00,CLR,,0.00,WeatherDisplay:10.37,2013-11-11 17:16:00,
2013-11-11 11:21:00,73.8,27.6,29.91,SSE,158,2.9,4.6,18,0.00,CLR,,0.00,WeatherDisplay:10.37,2013-11-11 17:21:00,
2013-11-11 11:26:00,74.1,27.9,29.91,ESE,112,4.9,6.9,18,0.00,CLR,,0.00,WeatherDisplay:10.37,2013-11-11 17:26:00,
2013-11-11 11:31:00,74.3,28.0,29.91,ESE,112,4.0,4.6,18,0.00,CLR,,0.00,WeatherDisplay:10.37,2013-11-11 17:31:00,
2013-11-11 11:36:00,74.3,28.0,29.91,SE,135,4.7,6.0,18,0.00,CLR,,0.00,WeatherDisplay:10.37,2013-11-11 17:36:00,
2013-11-11 11:41:00,74.5,28.2,29.88,SSE,158,2.0,3.5,18,0.00,CLR,,0.00,WeatherDisplay:10.37,2013-11-11 17:41:00,
2013-11-11 11:46:00,74.8,28.5,29.88,East,90,3.8,4.6,18,0.00,CLR,,0.00,WeatherDisplay:10.37,2013-11-11 17:46:00,
2013-11-11 11:51:00,74.7,25.5,29.88,SSE,158,3.3,5.8,16,0.00,CLR,,0.00,WeatherDisplay:10.37,2013-11-11 17:51:00,
2013-11-11 11:56:00,74.8,25.6,29.88,SE,135,1.4,2.3,16,0.00,CLR,,0.00,WeatherDisplay:10.37,2013-11-11 17:56:00,
2013-11-11 12:01:00,75.6,29.0,29.88,East,90,2.0,3.8,18,0.00,CLR,,0.00,WeatherDisplay:10.37,2013-11-11 18:01:00,
2013-11-11 12:06:00,75.4,24.5,29.88,East,90,3.6,4.7,15,0.00,CLR,,0.00,WeatherDisplay:10.37,2013-11-11 18:06:00,
2013-11-11 12:11:00,75.4,24.5,29.88,NE,45,2.2,6.4,15,0.00,CLR,,0.00,WeatherDisplay:10.37,2013-11-11 18:11:00,
2013-11-11 12:16:00,75.2,24.3,29.88,SSW,202,3.6,5.8,15,0.00,CLR,,0.00,WeatherDisplay:10.37,2013-11-11 18:16:00,
2013-11-11 12:21:00,75.0,25.7,29.88,SSW,202,2.9,4.6,16,0.00,CLR,,0.00,WeatherDisplay:10.37,2013-11-11 18:21:00,
2013-11-11 12:26:00,75.7,24.8,29.88,ENE,68,3.8,8.1,15,0.00,CLR,,0.00,WeatherDisplay:10.37,2013-11-11 18:26:00,
2013-11-11 12:31:00,75.9,24.9,29.88,East,90,2.4,4.7,15,0.00,CLR,,0.00,WeatherDisplay:10.37,2013-11-11 18:31:00,
2013-11-11 12:36:00,75.2,24.3,29.88,North,0,2.9,3.6,15,0.00,CLR,,0.00,WeatherDisplay:10.37,2013-11-11 18:36:00,
2013-11-11 12:41:00,75.4,24.5,29.88,ENE,68,4.3,4.9,15,0.00,CLR,,0.00,WeatherDisplay:10.37,2013-11-11 18:41:00,
2013-11-11 12:46:00,75.0,25.7,29.88,ENE,68,3.8,4.6,16,0.00,CLR,,0.00,WeatherDisplay:10.37,2013-11-11 18:46:00,
2013-11-11 12:51:00,75.6,24.6,29.88,East,90,4.0,5.8,15,0.00,CLR,,0.00,WeatherDisplay:10.37,2013-11-11 18:51:00,
2013-11-11 12:56:00,75.6,24.6,29.88,SE,135,3.3,5.9,15,0.00,CLR,,0.00,WeatherDisplay:10.37,2013-11-11 18:56:00,
2013-11-11 13:01:00,75.6,24.6,29.88,ESE,112,4.0,4.9,15,0.00,CLR,,0.00,WeatherDisplay:10.37,2013-11-11 19:01:00,
2013-11-11 13:06:00,75.6,24.6,29.88,NE,45,2.9,3.6,15,0.00,CLR,,0.00,WeatherDisplay:10.37,2013-11-11 19:06:00,
2013-11-11 13:11:00,75.7,24.8,29.88,WSW,248,3.1,3.5,15,0.00,CLR,,0.00,WeatherDisplay:10.37,2013-11-11 19:11:00,
2013-11-11 13:16:00,75.9,24.9,29.88,ESE,112,4.3,5.8,15,0.00,CLR,,0.00,WeatherDisplay:10.37,2013-11-11 19:16:00,
2013-11-11 13:21:00,76.1,25.1,29.88,East,90,3.1,3.8,15,0.00,CLR,,0.00,WeatherDisplay:10.37,2013-11-11 19:21:00,
2013-11-11 13:26:00,76.3,25.2,29.85,ESE,112,2.2,3.8,15,0.00,CLR,,0.00,WeatherDisplay:10.37,2013-11-11 19:26:00,
2013-11-11 13:31:00,76.1,25.1,29.85,ENE,68,2.4,3.5,15,0.00,CLR,,0.00,WeatherDisplay:10.37,2013-11-11 19:31:00,
2013-11-11 13:36:00,76.5,25.3,29.85,NE,45,2.2,2.6,15,0.00,CLR,,0.00,WeatherDisplay:10.37,2013-11-11 19:36:00,
2013-11-11 13:41:00,76.5,25.3,29.85,SSW,202,1.4,2.3,15,0.00,CLR,,0.00,WeatherDisplay:10.37,2013-11-11 19:41:00,
2013-11-11 13:46:00,76.5,25.3,29.85,SE,135,2.0,2.3,15,0.00,CLR,,0.00,WeatherDisplay:10.37,2013-11-11 19:46:00,
2013-11-11 13:51:00,76.6,25.5,29.85,East,90,3.3,5.8,15,0.00,CLR,,0.00,WeatherDisplay:10.37,2013-11-11 19:51:00,
2013-11-11 13:56:00,76.6,25.5,29.85,North,0,1.4,2.3,15,0.00,CLR,,0.00,WeatherDisplay:10.37,2013-11-11 19:56:00,
2013-11-11 14:01:00,76.5,25.3,29.85,South,180,2.9,4.6,15,0.00,CLR,,0.00,WeatherDisplay:10.37,2013-11-11 20:01:00,
2013-11-11 14:06:00,76.5,25.3,29.85,East,90,2.0,3.5,15,0.00,CLR,,0.00,WeatherDisplay:10.37,2013-11-11 20:06:00,
2013-11-11 14:11:00,76.6,25.5,29.85,SSE,158,1.4,3.5,15,0.00,CLR,,0.00,WeatherDisplay:10.37,2013-11-11 20:11:00,
2013-11-11 14:16:00,77.2,25.9,29.85,ENE,68,1.6,3.5,15,0.00,CLR,,0.00,WeatherDisplay:10.37,2013-11-11 20:16:00,
2013-11-11 14:21:00,76.8,25.6,29.85,NNW,338,2.0,3.8,15,0.00,CLR,,0.00,WeatherDisplay:10.37,2013-11-11 20:21:00,
2013-11-11 14:26:00,76.8,25.6,29.85,SSW,202,3.6,5.8,15,0.00,CLR,,0.00,WeatherDisplay:10.37,2013-11-11 20:26:00,
2013-11-11 14:31:00,77.2,25.9,29.85,SSE,158,2.0,5.8,15,0.00,CLR,,0.00,WeatherDisplay:10.37,2013-11-11 20:31:00,
2013-11-11 14:36:00,77.0,25.8,29.85,SE,135,2.2,3.5,15,0.00,CLR,,0.00,WeatherDisplay:10.37,2013-11-11 20:36:00,
2013-11-11 14:41:00,76.8,25.6,29.85,SE,135,1.2,2.4,15,0.00,CLR,,0.00,WeatherDisplay:10.37,2013-11-11 20:41:00,
2013-11-11 14:46:00,76.8,25.6,29.85,SSW,202,2.4,4.6,15,0.00,CLR,,0.00,WeatherDisplay:10.37,2013-11-11 20:46:00,
2013-11-11 14:51:00,76.5,25.3,29.85,ESE,112,4.0,4.6,15,0.00,CLR,,0.00,WeatherDisplay:10.37,2013-11-11 20:51:00,
2013-11-11 14:56:00,76.3,25.2,29.85,SSW,202,2.9,3.5,15,0.00,CLR,,0.00,WeatherDisplay:10.37,2013-11-11 20:56:00,
2013-11-11 15:01:00,76.5,25.3,29.85,SW,225,2.4,3.5,15,0.00,CLR,,0.00,WeatherDisplay:10.37,2013-11-11 21:01:00,
2013-11-11 15:06:00,76.5,25.3,29.85,SSE,158,2.6,2.9,15,0.00,CLR,,0.00,WeatherDisplay:10.37,2013-11-11 21:06:00,
2013-11-11 15:11:00,76.3,25.2,29.85,ESE,112,2.9,3.8,15,0.00,CLR,,0.00,WeatherDisplay:10.37,2013-11-11 21:11:00,
2013-11-11 15:16:00,76.3,25.2,29.85,SE,135,3.8,4.7,15,0.00,CLR,,0.00,WeatherDisplay:10.37,2013-11-11 21:16:00,
2013-11-11 15:21:00,75.9,24.9,29.85,SSE,158,3.1,4.6,15,0.00,CLR,,0.00,WeatherDisplay:10.37,2013-11-11 21:21:00,
2013-11-11 15:26:00,76.1,25.1,29.85,SE,135,3.3,3.8,15,0.00,CLR,,0.00,WeatherDisplay:10.37,2013-11-11 21:26:00,
2013-11-11 15:31:00,76.1,25.1,29.85,ENE,68,2.2,2.9,15,0.00,CLR,,0.00,WeatherDisplay:10.37,2013-11-11 21:31:00,
2013-11-11 15:36:00,76.1,25.1,29.85,South,180,3.6,4.6,15,0.00,CLR,,0.00,WeatherDisplay:10.37,2013-11-11 21:36:00,
2013-11-11 15:41:00,75.7,24.8,29.85,ESE,112,2.6,3.5,15,0.00,CLR,,0.00,WeatherDisplay:10.37,2013-11-11 21:41:00,
2013-11-11 15:46:00,75.4,24.5,29.85,ESE,112,3.1,5.8,15,0.00,CLR,,0.00,WeatherDisplay:10.37,2013-11-11 21:46:00,
2013-11-11 15:51:00,75.2,24.3,29.85,East,90,2.4,2.9,15,0.00,CLR,,0.00,WeatherDisplay:10.37,2013-11-11 21:51:00,
2013-11-11 15:56:00,75.0,25.7,29.85,ESE,112,2.9,3.6,16,0.00,CLR,,0.00,WeatherDisplay:10.37,2013-11-11 21:56:00,
2013-11-11 16:01:00,74.7,25.5,29.85,SE,135,2.2,3.5,16,0.00,CLR,,0.00,WeatherDisplay:10.37,2013-11-11 22:01:00,
2013-11-11 16:06:00,74.1,25.0,29.85,SSE,158,2.4,3.8,16,0.00,CLR,,0.00,WeatherDisplay:10.37,2013-11-11 22:06:00,
2013-11-11 16:11:00,73.9,24.9,29.85,ESE,112,1.6,2.3,16,0.00,CLR,,0.00,WeatherDisplay:10.37,2013-11-11 22:11:00,
2013-11-11 16:16:00,73.6,24.6,29.85,SE,135,1.6,2.4,16,0.00,CLR,,0.00,WeatherDisplay:10.37,2013-11-11 22:16:00,
2013-11-11 16:21:00,73.4,24.4,29.85,SE,135,2.9,3.5,16,0.00,CLR,,0.00,WeatherDisplay:10.37,2013-11-11 22:21:00,
2013-11-11 16:26:00,73.2,24.3,29.85,ESE,112,0.9,2.3,16,0.00,CLR,,0.00,WeatherDisplay:10.37,2013-11-11 22:26:00,
2013-11-11 16:31:00,73.0,24.2,29.85,ESE,112,0.0,0.0,16,0.00,CLR,,0.00,WeatherDisplay:10.37,2013-11-11 22:31:00,
2013-11-11 16:36:00,72.3,23.6,29.85,ESE,112,0.0,0.0,16,0.00,CLR,,0.00,WeatherDisplay:10.37,2013-11-11 22:36:00,
2013-11-11 16:41:00,72.0,23.3,29.85,ESE,112,0.0,0.0,16,0.00,CLR,,0.00,WeatherDisplay:10.37,2013-11-11 22:41:00,
2013-11-11 16:46:00,71.1,26.7,29.85,ESE,112,0.0,0.0,19,0.00,CLR,,0.00,WeatherDisplay:10.37,2013-11-11 22:46:00,
2013-11-11 16:51:00,70.2,25.9,29.85,ESE,112,0.0,0.0,19,0.00,CLR,,0.00,WeatherDisplay:10.37,2013-11-11 22:51:00,
2013-11-11 16:56:00,69.4,26.6,29.85,ESE,112,0.0,0.0,20,0.00,CLR,,0.00,WeatherDisplay:10.37,2013-11-11 22:56:00,
2013-11-11 17:01:00,68.5,28.2,29.85,ESE,112,0.0,0.0,22,0.00,CLR,,0.00,WeatherDisplay:10.37,2013-11-11 23:01:00,
2013-11-11 17:06:00,67.8,28.6,29.85,East,90,1.2,1.6,23,0.00,CLR,,0.00,WeatherDisplay:10.37,2013-11-11 23:06:00,
2013-11-11 17:11:00,67.3,29.2,29.85,East,90,1.2,1.2,24,0.00,CLR,,0.00,WeatherDisplay:10.37,2013-11-11 23:11:00,
2013-11-11 17:16:00,66.7,28.8,29.85,East,90,0.0,0.0,24,0.00,CLR,,0.00,WeatherDisplay:10.37,2013-11-11 23:16:00,
2013-11-11 17:21:00,66.0,29.2,29.85,East,90,0.0,0.0,25,0.00,CLR,,0.00,WeatherDisplay:10.37,2013-11-11 23:21:00,
2013-11-11 17:26:00,65.5,28.7,29.85,East,90,0.0,0.0,25,0.00,CLR,,0.00,WeatherDisplay:10.37,2013-11-11 23:26:00,
2013-11-11 17:31:00,64.8,29.0,29.85,WSW,248,1.2,2.3,26,0.00,CLR,,0.00,WeatherDisplay:10.37,2013-11-11 23:31:00,
2013-11-11 17:36:00,64.4,29.7,29.85,WSW,248,1.4,2.3,27,0.00,CLR,,0.00,WeatherDisplay:10.37,2013-11-11 23:36:00,
2013-11-11 17:41:00,64.0,33.6,29.85,NNW,338,0.0,0.0,32,0.00,CLR,,0.00,WeatherDisplay:10.37,2013-11-11 23:41:00,
2013-11-11 17:46:00,63.3,31.3,29.85,NNW,338,0.0,0.0,30,0.00,CLR,,0.00,WeatherDisplay:10.37,2013-11-11 23:46:00,
2013-11-11 17:51:00,62.8,33.2,29.85,WNW,292,0.0,1.4,33,0.00,CLR,,0.00,WeatherDisplay:10.37,2013-11-11 23:51:00,
2013-11-11 17:56:00,62.6,32.3,29.85,WNW,292,0.0,0.0,32,0.00,CLR,,0.00,WeatherDisplay:10.37,2013-11-11 23:56:00,
2013-11-11 18:01:00,62.2,32.0,29.85,WNW,292,0.0,0.0,32,0.00,CLR,,0.00,WeatherDisplay:10.37,2013-11-12 00:01:00,
2013-11-11 18:06:00,61.9,31.7,29.85,WNW,292,0.0,0.0,32,0.00,CLR,,0.00,WeatherDisplay:10.37,2013-11-12 00:06:00,
2013-11-11 18:11:00,61.5,32.1,29.85,WNW,292,0.0,0.0,33,0.00,CLR,,0.00,WeatherDisplay:10.37,2013-11-12 00:11:00,
2013-11-11 18:16:00,61.3,32.0,29.85,South,180,0.0,0.0,33,0.00,CLR,,0.00,WeatherDisplay:10.37,2013-11-12 00:16:00,
2013-11-11 18:21:00,61.2,32.5,29.85,South,180,0.0,0.0,34,0.00,CLR,,0.00,WeatherDisplay:10.37,2013-11-12 00:21:00,
2013-11-11 18:26:00,61.0,32.4,29.85,South,180,0.0,0.0,34,0.00,CLR,,0.00,WeatherDisplay:10.37,2013-11-12 00:26:00,
2013-11-11 18:31:00,60.6,32.8,29.85,South,180,0.0,0.0,35,0.00,CLR,,0.00,WeatherDisplay:10.37,2013-11-12 00:31:00,
2013-11-11 18:36:00,60.3,32.5,29.85,South,180,0.0,0.0,35,0.00,CLR,,0.00,WeatherDisplay:10.37,2013-11-12 00:36:00,
2013-11-11 18:41:00,59.9,32.2,29.85,South,180,0.0,0.0,35,0.00,CLR,,0.00,WeatherDisplay:10.37,2013-11-12 00:41:00,
2013-11-11 18:46:00,59.7,32.0,29.85,South,180,0.0,0.0,35,0.00,CLR,,0.00,WeatherDisplay:10.37,2013-11-12 00:46:00,
2013-11-11 18:51:00,59.4,32.4,29.85,ENE,68,0.0,0.0,36,0.00,CLR,,0.00,WeatherDisplay:10.37,2013-11-12 00:51:00,
2013-11-11 18:56:00,59.2,37.8,29.88,North,0,2.9,3.5,45,0.00,CLR,,0.00,WeatherDisplay:10.37,2013-11-12 00:56:00,
2013-11-11 19:01:00,59.2,38.4,29.88,North,0,2.2,2.3,46,0.00,CLR,,0.00,WeatherDisplay:10.37,2013-11-12 01:01:00,
2013-11-11 19:06:00,59.0,37.1,29.88,NNW,338,1.2,1.4,44,0.00,CLR,,0.00,WeatherDisplay:10.37,2013-11-12 01:06:00,
2013-11-11 19:12:00,59.0,35.9,29.88,NNW,338,0.0,0.0,42,0.00,CLR,,0.00,WeatherDisplay:10.37,2013-11-12 01:12:00,
2013-11-11 19:17:00,58.8,35.2,29.88,NNW,338,0.0,0.0,41,0.00,CLR,,0.00,WeatherDisplay:10.37,2013-11-12 01:17:00,
2013-11-11 19:22:00,58.5,34.8,29.88,NNW,338,0.0,0.0,41,0.00,CLR,,0.00,WeatherDisplay:10.37,2013-11-12 01:22:00,
2013-11-11 19:27:00,58.3,34.0,29.88,WSW,248,0.0,0.0,40,0.00,CLR,,0.00,WeatherDisplay:10.37,2013-11-12 01:27:00,
2013-11-11 19:32:00,58.3,35.3,29.88,North,0,0.0,0.0,42,0.00,CLR,,0.00,WeatherDisplay:10.37,2013-11-12 01:32:00,
2013-11-11 19:37:00,58.1,35.1,29.88,North,0,0.0,0.0,42,0.00,CLR,,0.00,WeatherDisplay:10.37,2013-11-12 01:37:00,
2013-11-11 19:42:00,57.9,35.5,29.88,North,0,0.0,0.0,43,0.00,CLR,,0.00,WeatherDisplay:10.37,2013-11-12 01:42:00,
2013-11-11 19:47:00,57.7,34.8,29.88,North,0,0.0,0.0,42,0.00,CLR,,0.00,WeatherDisplay:10.37,2013-11-12 01:47:00,
2013-11-11 19:52:00,57.6,35.2,29.88,North,0,0.0,0.0,43,0.00,CLR,,0.00,WeatherDisplay:10.37,2013-11-12 01:52:00,
2013-11-11 19:57:00,57.2,34.9,29.88,North,0,0.0,0.0,43,0.00,CLR,,0.00,WeatherDisplay:10.37,2013-11-12 01:57:00,
2013-11-11 20:02:00,57.0,35.3,29.88,North,0,0.0,0.0,44,0.00,CLR,,0.00,WeatherDisplay:10.37,2013-11-12 02:02:00,
2013-11-11 20:07:00,56.8,35.7,29.88,North,0,0.0,0.0,45,0.00,CLR,,0.00,WeatherDisplay:10.37,2013-11-12 02:07:00,
2013-11-11 20:12:00,56.7,35.5,29.88,North,0,0.0,0.0,45,0.00,CLR,,0.00,WeatherDisplay:10.37,2013-11-12 02:12:00,
2013-11-11 20:17:00,56.5,35.4,29.88,North,0,0.0,0.0,45,0.00,CLR,,0.00,WeatherDisplay:10.37,2013-11-12 02:17:00,
2013-11-11 20:22:00,56.3,35.2,29.88,North,0,0.0,0.0,45,0.00,CLR,,0.00,WeatherDisplay:10.37,2013-11-12 02:22:00,
2013-11-11 20:27:00,56.1,35.6,29.88,North,0,0.0,0.0,46,0.00,CLR,,0.00,WeatherDisplay:10.37,2013-11-12 02:27:00,
2013-11-11 20:32:00,55.9,35.4,29.88,North,0,0.0,0.0,46,0.00,CLR,,0.00,WeatherDisplay:10.37,2013-11-12 02:32:00,
2013-11-11 20:37:00,55.8,35.3,29.88,North,0,0.0,0.0,46,0.00,CLR,,0.00,WeatherDisplay:10.37,2013-11-12 02:37:00,
2013-11-11 20:42:00,55.8,35.8,29.88,North,0,0.0,0.0,47,0.00,CLR,,0.00,WeatherDisplay:10.37,2013-11-12 02:42:00,
2013-11-11 20:47:00,55.6,35.7,29.88,North,0,0.0,0.0,47,0.00,CLR,,0.00,WeatherDisplay:10.37,2013-11-12 02:47:00,
2013-11-11 20:52:00,55.2,35.9,29.88,North,0,0.0,0.0,48,0.00,CLR,,0.00,WeatherDisplay:10.37,2013-11-12 02:52:00,
2013-11-11 20:57:00,55.0,35.7,29.88,North,0,0.0,0.0,48,0.00,CLR,,0.00,WeatherDisplay:10.37,2013-11-12 02:57:00,
2013-11-11 21:02:00,54.9,36.0,29.88,North,0,0.0,0.0,49,0.00,CLR,,0.00,WeatherDisplay:10.37,2013-11-12 03:02:00,
2013-11-11 21:07:00,54.7,35.9,29.88,North,0,0.0,0.0,49,0.00,CLR,,0.00,WeatherDisplay:10.37,2013-11-12 03:07:00,
2013-11-11 21:12:00,54.5,35.7,29.88,North,0,0.0,0.0,49,0.00,CLR,,0.00,WeatherDisplay:10.37,2013-11-12 03:12:00,
2013-11-11 21:17:00,54.3,35.5,29.88,North,0,0.0,0.0,49,0.00,CLR,,0.00,WeatherDisplay:10.37,2013-11-12 03:17:00,
2013-11-11 21:22:00,54.1,35.9,29.88,North,0,0.0,0.0,50,0.00,CLR,,0.00,WeatherDisplay:10.37,2013-11-12 03:22:00,
2013-11-11 21:27:00,54.1,35.9,29.88,North,0,0.0,0.0,50,0.00,CLR,,0.00,WeatherDisplay:10.37,2013-11-12 03:27:00,
2013-11-11 21:32:00,54.0,35.7,29.88,North,0,0.0,0.0,50,0.00,CLR,,0.00,WeatherDisplay:10.37,2013-11-12 03:32:00,
2013-11-11 21:37:00,53.8,36.6,29.88,North,0,0.0,0.0,52,0.00,CLR,,0.00,WeatherDisplay:10.37,2013-11-12 03:37:00,
2013-11-11 21:42:00,53.6,36.4,29.88,North,0,0.0,0.0,52,0.00,CLR,,0.00,WeatherDisplay:10.37,2013-11-12 03:42:00,
2013-11-11 21:47:00,53.4,36.2,29.88,North,0,0.0,0.0,52,0.00,CLR,,0.00,WeatherDisplay:10.37,2013-11-12 03:47:00,
2013-11-11 21:52:00,53.1,35.9,29.88,North,0,0.0,0.0,52,0.00,CLR,,0.00,WeatherDisplay:10.37,2013-11-12 03:52:00,
2013-11-11 21:57:00,53.1,35.9,29.88,North,0,0.0,0.0,52,0.00,CLR,,0.00,WeatherDisplay:10.37,2013-11-12 03:57:00,
2013-11-11 22:02:00,52.9,36.2,29.88,North,0,0.0,0.0,53,0.00,CLR,,0.00,WeatherDisplay:10.37,2013-11-12 04:02:00,
2013-11-11 22:07:00,52.7,35.6,29.88,North,0,0.0,0.0,52,0.00,CLR,,0.00,WeatherDisplay:10.37,2013-11-12 04:07:00,
2013-11-11 22:12:00,52.5,35.4,29.88,North,0,0.0,0.0,52,0.00,CLR,,0.00,WeatherDisplay:10.37,2013-11-12 04:12:00,
2013-11-11 22:17:00,52.3,35.7,29.88,North,0,0.0,0.0,53,0.00,CLR,,0.00,WeatherDisplay:10.37,2013-11-12 04:17:00,
2013-11-11 22:22:00,52.3,36.2,29.88,North,0,0.0,0.0,54,0.00,CLR,,0.00,WeatherDisplay:10.37,2013-11-12 04:22:00,
2013-11-11 22:27:00,52.3,36.2,29.85,North,0,0.0,0.0,54,0.00,CLR,,0.00,WeatherDisplay:10.37,2013-11-12 04:27:00,
2013-11-11 22:32:00,52.2,36.5,29.85,North,0,0.0,0.0,55,0.00,CLR,,0.00,WeatherDisplay:10.37,2013-11-12 04:32:00,
2013-11-11 22:37:00,52.2,36.5,29.85,North,0,0.0,0.0,55,0.00,CLR,,0.00,WeatherDisplay:10.37,2013-11-12 04:37:00,
2013-11-11 22:42:00,52.0,36.3,29.85,North,0,0.0,0.0,55,0.00,CLR,,0.00,WeatherDisplay:10.37,2013-11-12 04:42:00,
2013-11-11 22:47:00,51.8,36.1,29.85,North,0,0.0,0.0,55,0.00,CLR,,0.00,WeatherDisplay:10.37,2013-11-12 04:47:00,
2013-11-11 22:52:00,51.8,36.6,29.85,North,0,0.0,0.0,56,0.00,CLR,,0.00,WeatherDisplay:10.37,2013-11-12 04:52:00,
2013-11-11 22:57:00,51.8,36.6,29.85,North,0,0.0,0.0,56,0.00,CLR,,0.00,WeatherDisplay:10.37,2013-11-12 04:57:00,
2013-11-11 23:01:00,51.6,36.9,29.85,North,0,0.0,0.0,57,0.00,CLR,,0.00,WeatherDisplay:10.37,2013-11-12 05:01:00,
2013-11-11 23:02:00,51.6,36.9,29.85,North,0,0.0,0.0,57,0.00,CLR,,0.00,WeatherDisplay:10.37,2013-11-12 05:02:00,
2013-11-11 23:03:00,51.6,37.3,29.85,North,0,0.0,0.0,58,0.00,CLR,,0.00,WeatherDisplay:10.37,2013-11-12 05:03:00,
2013-11-11 23:05:00,51.6,37.3,29.85,North,0,0.0,0.0,58,0.00,CLR,,0.00,WeatherDisplay:10.37,2013-11-12 05:05:00,
2013-11-11 23:06:00,51.6,37.7,29.85,North,0,0.0,0.0,59,0.00,CLR,,0.00,WeatherDisplay:10.37,2013-11-12 05:06:00,
2013-11-11 23:12:00,51.6,37.7,29.85,North,0,0.0,0.0,59,0.00,CLR,,0.00,WeatherDisplay:10.37,2013-11-12 05:12:00,
2013-11-11 23:17:00,51.6,37.7,29.85,North,0,0.0,0.0,59,0.00,CLR,,0.00,WeatherDisplay:10.37,2013-11-12 05:17:00,
2013-11-11 23:22:00,51.6,37.7,29.85,North,0,0.0,0.0,59,0.00,CLR,,0.00,WeatherDisplay:10.37,2013-11-12 05:22:00,
2013-11-11 23:27:00,51.4,37.6,29.85,North,0,0.0,0.0,59,0.00,CLR,,0.00,WeatherDisplay:10.37,2013-11-12 05:27:00,
2013-11-11 23:32:00,51.3,37.4,29.85,North,0,0.0,0.0,59,0.00,CLR,,0.00,WeatherDisplay:10.37,2013-11-12 05:32:00,
2013-11-11 23:37:00,51.1,36.8,29.85,North,0,0.0,0.0,58,0.00,CLR,,0.00,WeatherDisplay:10.37,2013-11-12 05:37:00,
2013-11-11 23:39:00,50.9,36.6,29.85,North,0,0.0,0.0,58,0.00,CLR,,0.00,WeatherDisplay:10.37,2013-11-12 05:39:00,
2013-11-11 23:44:00,50.9,36.6,29.85,North,0,0.0,0.0,58,0.00,CLR,,0.00,WeatherDisplay:10.37,2013-11-12 05:44:00,
2013-11-11 23:49:00,50.9,37.1,29.85,North,0,0.0,0.0,59,0.00,CLR,,0.00,WeatherDisplay:10.37,2013-11-12 05:49:00,
2013-11-11 23:54:00,50.7,37.3,29.85,North,0,0.0,0.0,60,0.00,CLR,,0.00,WeatherDisplay:10.37,2013-11-12 05:54:00,
2013-11-11 23:59:00,50.7,36.9,29.85,North,0,0.0,0.0,59,0.00,CLR,,0.00,WeatherDisplay:10.37,2013-11-12 05:59:00,